(505093) = 2011 VQ5

Discovered at Mount Lemmon on 2011-11-03 by Mt. Lemmon Survey.

Orbit

Orbit type: Amor
Near-Earth Object

Note: WebGL enabled browser required.

epoch2024-03-31.0
epoch JD2460400.5
perihelion date2024-01-04.56041
perihelion JD2460314.06042
argument of perihelion (°)89.55582
ascending node (°)30.27789
inclination (°)7.19490
eccentricity0.4366145
perihelion distance (AU)1.1613948
Tisserand w.r.t. Jupiter3.6
ΔV w.r.t. Earth (km/sec)6.6
semimajor axis (AU)2.0614567
mean anomaly (°)28.78428
mean daily motion (°/day)0.33299890
aphelion distance (AU)2.962
period (years)2.96
P-vector [x]-0.49351435
P-vector [y]0.73983405
P-vector [z]0.45726269
Q-vector [x]-0.86744218
Q-vector [y]-0.45686754
Q-vector [z]-0.19701804
absolute magnitude20.2
phase slope0.15
uncertainty0
referenceE2024-GI3
observations used471
oppositions6
arc length (days)5670
first opposition used2008
last opposition used2024
residual rms (arc-secs)0.78
perturbers coarse indicatorM-v
perturbers precise indicator003Ek
first observation date used2008-10-03.0
last observation date used2024-04-12.0
computer nameMPCLINUX
JD of orbit computation2458057.038808
perihelion JD uncertainty (days)4.5355E-05
argument of perihelion uncertainty (°)5.9257E-05
ascending node uncertainty (°)3.3587E-05
inclination uncertainty (°)1.1900E-05
eccentricity uncertainty 1.9974E-07
perihelion distance uncertainty (AU)4.1226E-07
Minimum Orbit Intersection Distances (in AU)
for orbit epoch: 2460400.5, reference: E2024-GI3
Mercury0.83446
Venus0.44954
Earth0.22283
Mars0.00286
Jupiter2.191
Saturn7.03123
Uranus16.7022
Neptune27.2579

Observations

482 total observations over interval: 2008 10 03.267759 – 2024 04 12.320962
These data are available for download (format description).

Date (UT) J2000 RA J2000 Dec Magn Location Ref
2008 10 03.267759 01 08 42.01 +02 28 57.2   645 – Apache Point-Sloan Digital Sky Survey MPS 1736655
2008 10 03.268589 01 08 41.93 +02 28 56.9   645 – Apache Point-Sloan Digital Sky Survey MPS 1736655
2008 10 03.271076 01 08 41.71 +02 28 56.2   645 – Apache Point-Sloan Digital Sky Survey MPS 1736655
2011 11 03.15641 01 11 01.93 +07 58 19.7 20.5 V G96 – Mt. Lemmon Survey MPS 398700
2011 11 03.16512 01 11 01.03 +07 58 19.4 20.2 V G96 – Mt. Lemmon Survey MPS 398700
2011 11 03.17390 01 11 00.20 +07 58 19.4 20.9 V G96 – Mt. Lemmon Survey MPS 398700
2011 11 03.18267 01 10 59.30 +07 58 19.5 20.5 V G96 – Mt. Lemmon Survey MPS 398700
2011 11 03.26910 01 10 50.79 +07 58 19.2   291 – LPL/Spacewatch II MPS 398700
2011 11 03.27130 01 10 50.61 +07 58 19.2   291 – LPL/Spacewatch II MPS 398700
2011 11 03.27353 01 10 50.41 +07 58 19.2   291 – LPL/Spacewatch II MPS 398700
2011 11 04.16314 01 09 28.02 +07 58 08.7 21.4 V G96 – Mt. Lemmon Survey MPS 398700
2011 11 04.16913 01 09 27.48 +07 58 08.9 21.4 V G96 – Mt. Lemmon Survey MPS 398700
2011 11 04.18112 01 09 26.29 +07 58 08.5 20.5 V G96 – Mt. Lemmon Survey MPS 398700
2011 11 05.128223 01 07 59.13 +07 58 04.9 21.5 V H21 – Astronomical Research Observatory, Westfield MPS 398700
2011 11 05.140846 01 07 57.87 +07 58 06.2 21.2 V H21 – Astronomical Research Observatory, Westfield MPS 398700
2011 11 15.31283 00 54 01.57 +08 07 29.0   291 – LPL/Spacewatch II MPS 400258
2011 11 15.31659 00 54 01.38 +08 07 29.4   291 – LPL/Spacewatch II MPS 400258
2011 11 15.32035 00 54 01.12 +08 07 30.0   291 – LPL/Spacewatch II MPS 400258
2011 11 16.23164 00 52 58.18 +08 09 23.3   291 – LPL/Spacewatch II MPS 400258
2011 11 16.23500 00 52 57.85 +08 09 23.0   291 – LPL/Spacewatch II MPS 400258
2011 11 16.23836 00 52 57.58 +08 09 23.3   291 – LPL/Spacewatch II MPS 400258
2011 11 23.22433 00 46 12.44 +08 30 18.5   291 – LPL/Spacewatch II MPS 401292
2011 11 23.22957 00 46 12.16 +08 30 19.9   291 – LPL/Spacewatch II MPS 401292
2011 11 23.23479 00 46 11.93 +08 30 20.9   291 – LPL/Spacewatch II MPS 401292
2011 12 24.13914 00 49 06.40 +12 39 12.5   291 – LPL/Spacewatch II MPS 404747
2011 12 24.14205 00 49 06.57 +12 39 15.2   291 – LPL/Spacewatch II MPS 404747
2011 12 24.14495 00 49 06.68 +12 39 15.8   291 – LPL/Spacewatch II MPS 404747
2012 01 14.08727 01 19 39.57 +17 36 45.0   291 – LPL/Spacewatch II MPS 407789
2012 01 14.08984 01 19 39.89 +17 36 47.2   291 – LPL/Spacewatch II MPS 407789
2012 01 14.09245 01 19 40.25 +17 36 50.6   291 – LPL/Spacewatch II MPS 407789
2012 04 18.18020 07 26 40.85 +29 21 31.9 21.8 R 291 – LPL/Spacewatch II MPS 420903
2012 04 18.18631 07 26 42.49 +29 21 26.2 21.6 R 291 – LPL/Spacewatch II MPS 420903
2012 04 18.19246 07 26 44.13 +29 21 20.1 21.8 R 291 – LPL/Spacewatch II MPS 420903
2014 09 20.360616 02 44 27.63 +13 11 18.2 22.2 V H21 – Astronomical Research Observatory, Westfield MPS 533322
2014 09 20.372463 02 44 27.76 +13 11 21.3 22.6 V H21 – Astronomical Research Observatory, Westfield MPS 533322
2014 09 20.383703 02 44 27.84 +13 11 25.0 22.4 V H21 – Astronomical Research Observatory, Westfield MPS 533322
2014 09 24.324207 02 45 00.38 +13 30 53.0 22.4 V H21 – Astronomical Research Observatory, Westfield MPS 533322
2014 09 24.333102 02 45 00.39 +13 30 55.7 22.3 V H21 – Astronomical Research Observatory, Westfield MPS 533322
2014 09 24.344862 02 45 00.38 +13 30 59.0 22.4 V H21 – Astronomical Research Observatory, Westfield MPS 533322
2014 10 13.34747 02 38 23.73 +14 59 21.6 21.5 V G96 – Mt. Lemmon Survey MPS 538955
2014 10 13.35373 02 38 23.42 +14 59 24.1 20.3 V G96 – Mt. Lemmon Survey MPS 538955
2014 10 13.35999 02 38 23.08 +14 59 26.1 20.9 V G96 – Mt. Lemmon Survey MPS 538955
2014 10 15.22231 02 36 50.19 +15 07 39.4 21.2 V 691 – Steward Observatory, Kitt Peak-Spacewatch MPS 538955
2014 10 15.24272 02 36 49.02 +15 07 45.3 21.2 V 691 – Steward Observatory, Kitt Peak-Spacewatch MPS 538955
2014 10 15.26311 02 36 47.87 +15 07 50.7 21.1 V 691 – Steward Observatory, Kitt Peak-Spacewatch MPS 538955
2014 10 29.28336 02 19 53.85 +16 07 05.4 19.4 V 703 – Catalina Sky Survey MPS 542332
2014 10 29.29236 02 19 52.87 +16 07 07.6 20.2 V 703 – Catalina Sky Survey MPS 542332
2014 10 29.29686 02 19 52.52 +16 07 08.6 20.5 V 703 – Catalina Sky Survey MPS 542332
2014 10 31.17881 02 17 01.85 +16 14 43.8   691 – Steward Observatory, Kitt Peak-Spacewatch MPS 542332
2014 10 31.19658 02 17 00.05 +16 14 48.4   691 – Steward Observatory, Kitt Peak-Spacewatch MPS 542332
2014 10 31.21434 02 16 58.40 +16 14 52.9   691 – Steward Observatory, Kitt Peak-Spacewatch MPS 542332
2014 11 12.40608 01 56 52.316 +17 03 31.60 20.2 r F51 – Pan-STARRS 1, Haleakala MPS 544854
2014 11 12.41915 01 56 50.898 +17 03 34.72 20.3 r F51 – Pan-STARRS 1, Haleakala MPS 544854
2014 11 12.43188 01 56 49.550 +17 03 37.68 20.3 r F51 – Pan-STARRS 1, Haleakala MPS 544854
2014 11 12.44439 01 56 48.205 +17 03 40.48 20.1 r F51 – Pan-STARRS 1, Haleakala MPS 544854
2014 11 18.07971 01 47 35.89 +17 26 55.1 20.4 V 691 – Steward Observatory, Kitt Peak-Spacewatch MPS 545757
2014 11 18.10652 01 47 33.24 +17 27 02.5 20.8 V 691 – Steward Observatory, Kitt Peak-Spacewatch MPS 545757
2014 11 18.13670 01 47 30.22 +17 27 10.4 20.4 V 691 – Steward Observatory, Kitt Peak-Spacewatch MPS 545757
2014 11 20.43722 01 43 56.214 +17 37 16.41 20.5 w F51 – Pan-STARRS 1, Haleakala MPS 545757
2014 11 20.45086 01 43 54.912 +17 37 19.88 20.4 w F51 – Pan-STARRS 1, Haleakala MPS 545757
2014 11 20.46456 01 43 53.594 +17 37 23.15 20.5 w F51 – Pan-STARRS 1, Haleakala MPS 545757
2014 11 26.17103 01 35 59.23 +18 04 30.0 20.5 r G45 – Space Surveillance Telescope, Atom Site MPS 562756
2014 11 26.17517 01 35 58.88 +18 04 30.6 20.5 r G45 – Space Surveillance Telescope, Atom Site MPS 562756
2014 11 26.17938 01 35 58.55 +18 04 32.0 20.6 r G45 – Space Surveillance Telescope, Atom Site MPS 562756
2014 11 26.18353 01 35 58.17 +18 04 33.3 20.2 r G45 – Space Surveillance Telescope, Atom Site MPS 562756
2014 11 26.19444 01 35 57.29 +18 04 35.8 20.5 r G45 – Space Surveillance Telescope, Atom Site MPS 562756
2014 12 09.32812 01 24 30.976 +19 26 33.98 20.4 i F51 – Pan-STARRS 1, Haleakala MPS 551646
2014 12 09.34181 01 24 30.503 +19 26 39.96 20.6 i F51 – Pan-STARRS 1, Haleakala MPS 551646
2014 12 09.35552 01 24 30.058 +19 26 46.06 20.4 i F51 – Pan-STARRS 1, Haleakala MPS 551646
2014 12 09.36924 01 24 29.619 +19 26 51.77 20.5 i F51 – Pan-STARRS 1, Haleakala MPS 551646
2015 01 19.074665 02 03 36.43 +27 40 42.0 20.9 V H21 – Astronomical Research Observatory, Westfield MPS 562756
2015 01 19.082982 02 03 37.57 +27 40 49.2 21.2 V H21 – Astronomical Research Observatory, Westfield MPS 562756
2015 01 19.091064 02 03 38.68 +27 40 56.6 20.8 V H21 – Astronomical Research Observatory, Westfield MPS 562756
2015 01 24.647384 02 17 37.339 +29 09 05.54   C51 – WISE MPS 1761993
2015 01 24.77880 02 17 58.64 +29 11 12.4 20 R C51 – WISE MPS 567627
2015 01 24.91021 02 18 19.98 +29 13 21.1   C51 – WISE MPS 567627
2015 01 25.04162 02 18 41.43 +29 15 24.1   C51 – WISE MPS 567627
2015 01 25.17291 02 19 03.00 +29 17 32.5   C51 – WISE MPS 567627
2015 01 25.30432 02 19 24.52 +29 19 37.1   C51 – WISE MPS 567627
2015 01 25.370029 02 19 35.424 +29 20 38.33   C51 – WISE MPS 1761993
2015 01 25.43574 02 19 46.20 +29 21 41.7   C51 – WISE MPS 567627
2015 01 25.50144 02 19 57.08 +29 22 44.5   C51 – WISE MPS 567627
2015 01 25.63286 02 20 18.93 +29 24 52.3   C51 – WISE MPS 567627
2015 01 25.82998 02 20 51.70 +29 28 00.1   C51 – WISE MPS 567627
2015 01 26.027095 02 21 24.646 +29 31 07.61   C51 – WISE MPS 1761993
2015 01 29.771856 02 32 19.997 +30 30 40.21   C51 – WISE MPS 1761993
2015 01 30.62591 02 34 57.25 +30 44 08.1 20 R C51 – WISE MPS 569612
2015 01 30.69162 02 35 09.52 +30 45 09.3   C51 – WISE MPS 569612
2015 01 30.75733 02 35 21.67 +30 46 12.0   C51 – WISE MPS 569612
2015 01 30.82303 02 35 34.04 +30 47 12.7   C51 – WISE MPS 569612
2015 01 31.15144 02 36 35.44 +30 52 21.6   C51 – WISE MPS 569612
2015 01 31.28285 02 37 00.22 +30 54 27.7   C51 – WISE MPS 569612
2015 01 31.41426 02 37 24.88 +30 56 32.4   C51 – WISE MPS 569612
2015 01 31.545677 02 37 49.860 +30 58 33.71   C51 – WISE MPS 1761994
2015 01 31.67696 02 38 14.84 +31 00 36.4   C51 – WISE MPS 569612
